Regional Weather Roundup
Issued by NWS

Home | Current Version | Previous Version | Graphics & Text | Print | Product List | Glossary On
Versions: 1 2 3 4 5 6 7 8 9 10 11 12 13 14 15 16 17 18 19 20 21 22 23 24 25 26 27 28 29 30 31 32 33 34 35 36 37 38 39 40 41 42 43 44 45 46 47 48 49 50
850
ASUS44 KJAN 230903
RWRMS

MISSISSIPPI HOURLY WEATHER ROUNDUP
NATIONAL WEATHER SERVICE JACKSON MS
300 AM CST SUN NOV 23 2014

NOTE: "FAIR: INDICATES FEW OR NO CLOUDS BELOW 12,000 FEET WITH NO
SIGNIFICANT WEATHER AND/OR OBSTRUCTIONS TO VISIBILITY.

MSZ001>002-007>008-010>013-018>021-025>028-034>036-231000-
NORTHWEST MISSISSIPPI

CITY           SKY/WX    TMP DP  RH WIND       PRES   REMARKS
CLARKSDALE     CLOUDY    57  55  94 SE9       29.83F
CLEVELAND      CLOUDY    58  56  92 SE8       29.80F
GREENWOOD      CLOUDY    61  56  83 SE8       29.82F
GREENVILLE     CLOUDY    59  55  87 SE14      29.78F
GRENADA        CLOUDY    57  54  88 E7        29.85F FOG
OLIVE BRANCH   CLOUDY    57  57 100 SE8       29.86R
OXFORD         CLOUDY    57  54  88 SE12G18   29.88R
TUNICA         CLOUDY    59  54  82 SE10      29.83F
$$

MSZ003>006-009-014>017-022>024-029>033-037>039-231000-
NORTHEAST MISSISSIPPI

CITY           SKY/WX    TMP DP  RH WIND       PRES   REMARKS
COLUMBUS AFB   CLOUDY    59  53  80 SE14      29.89F
CORINTH        CLOUDY    59  54  82 SE13      29.88F
GOLDN TRIANGLE CLOUDY    59  54  82 SE14G22   29.88F
STARKVILLE     CLOUDY    57  54  88 SE14      29.88F
TUPELO         CLOUDY    58  54  86 MISG      29.88F FOG
$$

MSZ040-058-231000-
CENTRAL MISSISSIPPI

CITY           SKY/WX    TMP DP  RH WIND       PRES   REMARKS
JACKSON INTL   CLOUDY    61  58  90 SE14      29.82F
JACKSON HAWKNS CLOUDY    61  57  87 SE15G22   29.81F
MERIDIAN KEY   CLOUDY    58  56  93 E9        29.86F
MERIDIAN NAS   CLOUDY    57  55  94 E12       29.89F FOG
RAYMOND        CLOUDY    61  55  82 SE12G18   29.80F
VICKSBURG      LGT RAIN  62  58  86 SE13      29.76F
$$

MSZ059>079-231000-
SOUTH MISSISSIPPI

CITY           SKY/WX    TMP DP  RH WIND       PRES   REMARKS
BROOKHAVEN     CLOUDY    61  59  94 E7        29.83F FOG
HATTIESBURG    CLOUDY    60  59  96 E5        29.84F FOG
MCCOMB         CLOUDY    61  59  93 E8        29.79F
NATCHEZ        CLOUDY    63  57  82 SE15G23   29.77F
PINE BELT      CLOUDY    59  55  88 E7        29.85F
$$

MSZ080>082-231000-
COASTAL MISSISSIPPI

CITY           SKY/WX    TMP DP  RH WIND       PRES   REMARKS
BILOXI         CLOUDY    62  62 100 E8        29.81F
PASCAGOULA     CLOUDY    64  62  93 NE7       29.82F
GULFPORT       CLOUDY    63  62  97 E12       29.80F
$$



USA.gov is the U.S. government's official web portal to all federal, state and local government web resources and services.